Regional Weather Roundup
Issued by NWS Northern Indiana

Home | Current Version | Previous Version | Graphics & Text | Print | Product List | Glossary On
Versions: 1 2 3 4 5 6 7 8 9 10 11 12 13 14 15 16 17 18 19 20 21 22 23 24 25 26 27 28 29 30 31 32 33 34 35 36 37 38 39 40 41 42 43 44 45 46 47 48 49 50
000
ASUS43 KIWX 071910
RWRIWX

KIWX WEATHER ROUNDUP
NATIONAL WEATHER SERVICE NORTHERN INDIANA
300 PM EDT TUE JUL 07 2015

NOTE: "FAIR" INDICATES FEW OR NO CLOUDS BELOW 12,000 FEET WITH NO
SIGNIFICANT WEATHER AND/OR OBSTRUCTIONS TO VISIBILITY.

* THESE STATIONS ARE NOT UNDER NWS QUALITY CONTROL. THEY ALSO MAY NOT
  REPORT WEATHER SUCH AS PRECIPITATION OR FOG.

INZ001>027-072000-
NORTHERN INDIANA

CITY           SKY/WX    TMP DP  RH WIND       PRES   REMARKS
GARY*          PTSUNNY   64  54  68 N17G30    30.05R
VALPARAISO     PTSUNNY   65  50  58 N18G28    30.01R
MICHIGAN CITY* MOSUNNY   63  52  67 N13G21    30.02R
LAPORTE*       CLOUDY    67  53  60 N21G28    30.01R
KNOX*          CLOUDY    66  52  59 N21       29.98R
SOUTH BEND     MOSUNNY   69  53  56 N21G28    29.98R
ELKHART*       CLOUDY    70  57  64 NW10G16   29.96R
GOSHEN         CLOUDY    67  59  75 N7        29.96R
MONTICELLO*    CLOUDY    65  61  85 N15       29.96S
LOGANSPORT*    DRIZZLE   64  59  82 N12G20    29.96R
ROCHESTER*     CLOUDY    66  63  88 N12       29.97R
WARSAW*          N/A     64  63  94 N6        29.96R
ANGOLA*        CLOUDY    64  57  77 N8        29.93R
FORT WAYNE     LGT RAIN  69  67  93 NW9       29.93R
HUNTINGTON*    LGT RAIN  68  66  94 NW7       29.93S
PERU/GRISSOM   LGT RAIN  66  63  88 N10       29.94R
MARION*        LGT RAIN  68  67  96 NW9       29.94R

$$
INZ028>050-072000-
CENTRAL INDIANA

CITY           SKY/WX    TMP DP  RH WIND       PRES   REMARKS
LAFAYETTE      LGT RAIN  64  61  90 N14       29.96R
KOKOMO*        CLOUDY    66  63  88 N10       29.94R
MUNCIE*        LGT RAIN  72  70  93 SW6       29.93S
INDIANAPOLIS   HVY RAIN  71  68  90 CALM      29.92F FOG

$$
MIZ043>046-050>051-056>058-064>065-071>073-077>080-072000-
SOUTHWEST LOWER MICHIGAN

CITY           SKY/WX    TMP DP  RH WIND       PRES   REMARKS
BATTLE CREEK   PTSUNNY   71  58  63 N9        29.94R
BENTON HARBOR  SUNNY     63  51  65 N14G28    30.00R
COLDWATER*     CLOUDY    66  61  84 N6        29.94R
HILLSDALE*     CLOUDY    65  65 100 NW12      29.93R FOG
HOLLAND        SUNNY     68  51  54 NW13G23   29.97R
GRAND RAPIDS   PTSUNNY   70  55  59 N13       29.94R
KALAMAZOO      PTSUNNY   72  57  59 N13G18    29.94R
STURGIS*       CLOUDY    66  63  88 NW15      29.94R
THREE RIVERS*  CLOUDY    69  59  70 N6        29.95R

$$
OHZ001>008-015>018-024>025-072000-
NORTHWEST OHIO

CITY           SKY/WX    TMP DP  RH WIND       PRES   REMARKS
DEFIANCE       LGT RAIN  75  72  90 S7        29.90R FOG
FINDLAY        LGT RAIN  72  68  87 SW12      29.92R
TOLEDO EXPRESS LGT RAIN  74  72  93 S7        29.88S
TOLEDO METCALF LGT RAIN  75  70  84 SW10      29.90R
LIMA           RAIN      69  68  96 S3        29.93F FOG

$$
AND FOR LAKE MICHIGAN COASTAL AND OPEN LAKE BUOY OBSERVATIONS

STATION/POSITION TEMP    WIND        PRES    VSBY  WAVE
                 AIR SEA DIR/SP/G                  HT/PER
                 (F)     (DEG/KT/KT) (MB)    (MI)  (FT/S)
CALUMET HARBOR    61     350/ 13/ 20   N/A
MICHIGAN CITY     59     350/ 23/ 26   N/A
BURNS HARBOR      59      10/ 18/ 23 1017.3R
SAINT JOSEPH      62     340/ 21/ 27 1016.9R
4 MI NW BRIDGMAN  60 64   30/ 21/ 25   N/A           7/ 2
MICHIGAN CITY     60 65   10/ 17/ 23   N/A           7/ 7

$$
&&



USA.gov is the U.S. government's official web portal to all federal, state and local government web resources and services.